Location: Ballingbuur
(53.0000°N, 5.7667°E)
Time: 06:43:39
(UTC+00:00)

Cosmos 1745 Rocket - Pass Details

Date: 29 November 2020
Orbit: 952 x 999 km, 83.0° (Epoch: 23 January)

Event Time Altitude Azimuth Distance (km) Brightness Sun altitude
Exits shadow 04:44:13 42° 305° (NW) 1,384 4.4 -23.2°
Drops below altitude 10° 04:49:42 10° 2° (N) 2,780 6.3 -22.3°
Sets 04:52:24 0° 9° (N) 3,736 7.1 -21.9°
